Theta_e
343 343 345 349 349 348 349 350 350 350 350 349 349 349 349 349 348 348 347 348 347 347 344 342 343 342 341 341 342 341 342 342 342 343 344 345 344 344 345 348 348 349 349 348 348 349 349 348 346 346 346 345 345 345 344 343 344 343 342 340 340 340 340 339 339 339 339 340 340 341 342 342 342 341 342 342 341 340 340 341 341 338 339 342 346
342 344 345 347 349 348 349 349 350 349 350 349 349 349 348 349 348 348 347 347 347 346 344 342 342 343 341 341 341 341 340 341 341 342 342 342 343 345 347 347 347 348 348 348 347 347 346 345 346 345 345 344 344 343 342 342 341 341 340 340 340 339 339 339 339 339 339 340 340 340 340 340 341 341 341 341 342 341 340 339 340 336 336 343 344
344 345 345 347 349 349 349 349 350 350 349 349 349 349 348 349 347 347 347 346 346 346 346 343 341 341 342 341 340 341 340 340 340 340 339 339 343 347 347 346 347 348 347 346 345 344 343 344 345 344 342 343 342 342 341 341 341 341 340 338 338 338 338 338 338 338 339 339 339 339 340 339 339 339 340 341 341 340 340 339 339 339 336 342 341
343 344 345 345 347 348 349 350 350 349 349 349 349 349 349 348 347 347 346 346 346 344 342 342 343 342 341 341 340 340 340 339 340 339 339 339 347 349 348 347 347 347 347 346 344 343 342 342 342 341 339 341 342 342 341 341 342 341 340 340 337 337 337 337 338 337 337 338 337 335 334 332 335 340 342 341 341 340 339 339 338 339 339 340 340
343 343 344 345 345 346 349 349 349 349 349 349 349 349 348 348 348 347 346 345 345 346 343 341 341 341 340 340 340 340 339 339 339 339 339 340 345 347 347 346 346 345 345 344 342 341 341 340 341 339 339 341 341 341 341 342 343 343 342 340 339 337 337 336 336 337 337 336 335 333 329 332 334 338 339 340 339 338 338 338 338 338 338 337 338
342 343 344 344 345 346 347 349 349 349 349 349 348 348 348 348 347 346 346 346 345 345 344 345 342 341 341 340 340 340 339 339 339 338 338 344 347 347 346 346 345 343 342 342 340 340 341 340 339 338 340 341 340 341 341 342 342 342 341 340 340 339 337 336 336 336 335 334 334 328 328 330 331 334 339 339 338 339 338 339 339 340 339 339 340
342 343 344 344 344 345 346 349 349 349 349 348 348 348 348 347 347 346 346 346 345 345 343 343 343 342 340 340 340 340 339 339 339 338 340 347 346 346 345 344 344 343 343 342 341 342 341 340 339 338 340 341 340 341 341 341 341 342 341 338 338 337 337 336 335 335 333 330 326 327 328 329 330 332 338 338 340 339 338 339 338 338 339 339 339
343 344 344 344 343 344 346 349 349 349 348 348 348 348 347 347 346 346 346 345 345 345 344 344 342 342 341 340 340 339 339 339 339 338 338 344 344 344 343 342 342 340 340 340 341 342 338 338 338 339 340 341 340 340 340 341 342 342 341 337 337 338 337 337 336 335 332 326 326 326 326 328 329 330 336 339 339 339 343 343 342 342 342 342 339
342 344 344 344 344 344 346 348 348 349 348 348 348 348 347 346 346 346 345 345 345 345 344 343 341 342 342 341 340 339 339 338 338 338 340 340 341 341 342 341 342 343 341 342 343 342 340 338 338 339 340 340 340 340 340 341 342 342 341 337 338 338 337 337 335 334 330 327 327 327 327 328 328 329 336 338 339 341 341 340 340 341 341 338 338
342 343 343 343 343 342 346 347 349 349 348 348 348 347 346 346 346 346 345 345 345 345 344 342 342 341 341 341 340 339 339 337 337 337 339 342 343 342 341 341 344 343 342 342 343 338 338 337 338 338 339 340 339 339 340 340 342 342 341 340 340 339 338 336 335 334 328 328 327 328 331 334 330 332 336 339 341 341 340 337 338 338 337 337 338
342 342 342 343 343 342 348 349 349 348 348 348 347 347 346 346 346 346 345 345 345 345 345 343 341 340 341 341 340 340 339 338 338 338 339 339 340 340 340 339 340 341 341 340 340 340 338 338 337 337 340 339 338 338 338 339 341 341 340 340 340 339 337 336 333 330 331 331 331 331 335 337 332 335 340 340 341 340 337 337 337 337 337 338 338
342 342 342 341 344 342 347 347 349 349 348 348 347 346 346 346 346 345 345 345 345 345 345 343 340 340 341 340 340 339 338 338 338 338 339 339 339 339 339 340 340 340 339 339 338 338 338 337 337 336 339 338 337 337 337 338 339 340 339 339 338 336 336 334 331 330 330 330 331 331 331 333 334 335 340 340 339 339 338 337 337 338 336 336 336
342 341 341 341 342 341 345 346 347 348 348 347 347 346 346 346 345 345 345 345 344 345 343 341 340 339 340 340 339 339 338 337 337 337 337 337 337 338 339 339 339 338 338 337 336 335 335 335 335 337 338 337 336 336 337 337 338 338 338 337 337 335 334 333 330 330 330 330 330 331 332 333 334 337 339 339 341 340 338 338 338 335 334 333 333
341 341 341 342 342 345 340 344 346 347 347 347 347 347 346 346 345 345 345 345 345 344 343 341 339 339 340 340 339 338 338 337 336 336 336 337 337 338 338 337 336 335 333 333 334 334 335 334 334 337 336 335 335 335 336 335 336 336 335 335 333 332 331 331 331 329 329 330 330 330 331 333 334 338 338 341 340 339 338 337 337 335 334 332 331
341 341 342 342 342 342 342 340 343 344 345 347 347 347 347 346 345 345 345 345 344 344 343 340 338 338 338 339 338 338 337 337 336 337 338 338 337 337 336 335 335 333 333 334 335 335 335 334 335 336 335 334 334 334 334 335 334 334 333 333 331 329 327 323 325 326 329 330 330 331 331 333 337 337 337 339 338 338 337 335 335 334 334 333 332
342 341 341 342 341 341 342 342 337 338 343 345 345 345 346 346 346 345 345 345 344 344 343 340 338 338 338 338 337 337 337 336 336 336 335 335 335 335 334 333 334 336 336 334 333 333 333 334 335 334 333 333 334 334 334 333 334 334 332 331 329 328 325 324 321 322 324 328 329 330 331 333 336 338 339 339 338 336 335 335 335 334 333 332 332
342 341 341 341 340 340 341 341 337 334 335 339 341 342 343 345 345 345 344 343 344 343 343 340 338 338 338 338 337 337 337 336 335 335 335 335 334 334 333 333 333 333 333 333 333 333 333 333 334 333 333 333 333 333 332 333 332 331 331 328 327 326 324 322 320 319 321 325 327 328 330 332 335 337 339 338 337 336 334 334 333 332 332 332 332
341 341 340 340 340 340 340 340 338 339 339 335 335 339 341 344 343 343 343 343 342 343 341 339 338 337 337 337 336 336 336 335 335 335 335 334 334 333 333 332 333 333 333 332 331 331 331 331 332 332 332 332 332 331 331 332 331 330 330 328 327 325 324 322 318 320 321 323 324 328 330 335 335 336 337 338 336 335 334 333 332 331 330 330 329
340 341 341 340 340 340 340 338 338 339 339 339 339 337 336 340 341 340 341 342 341 341 340 336 336 335 334 332 331 332 332 333 335 334 334 334 333 333 333 333 333 333 332 331 331 330 330 330 331 331 331 331 330 330 330 330 330 329 328 326 324 323 322 320 318 319 319 321 324 327 329 334 335 336 337 336 335 335 334 333 330 328 327 328 328
339 339 339 340 340 339 339 339 339 339 339 339 339 338 333 333 337 338 338 339 339 338 335 333 330 328 327 327 326 325 324 324 324 325 329 329 329 327 332 333 332 332 331 331 330 329 330 330 329 329 328 327 327 327 327 328 329 327 326 324 322 320 317 317 316 317 318 319 320 325 332 334 334 334 334 334 333 332 331 330 327 326 327 327 327
337 337 338 339 339 339 339 339 339 339 339 339 339 338 335 332 333 332 334 336 335 334 332 326 323 323 323 322 323 322 322 322 322 322 322 322 322 324 331 331 331 330 330 330 329 328 329 328 327 326 326 324 323 322 323 325 326 326 324 321 318 316 315 315 315 316 316 317 319 324 330 332 334 334 333 333 331 329 328 327 328 328 327 326 325
332 334 337 339 339 338 339 339 339 339 340 340 340 339 335 335 337 336 336 333 329 327 327 326 325 322 320 322 322 321 322 322 322 325 321 322 322 322 325 330 330 330 329 329 328 328 327 326 325 325 324 322 318 311 312 317 320 321 320 317 315 314 314 314 314 315 316 317 318 328 332 332 330 332 333 330 329 328 327 327 327 326 325 326 325
330 332 334 337 338 338 339 339 339 339 339 339 340 338 337 338 337 337 334 330 329 329 328 326 324 322 321 321 321 322 322 321 321 321 320 319 321 321 324 327 329 328 328 328 327 327 326 324 323 322 321 317 309 307 308 309 311 315 314 314 313 312 312 312 312 313 315 317 319 329 331 331 332 332 332 331 329 328 327 325 325 324 324 324 323
330 331 333 336 337 337 337 339 339 338 338 337 338 338 338 339 338 337 335 333 333 333 330 327 324 323 323 322 322 322 321 320 321 321 320 318 319 320 322 324 325 324 324 325 325 325 323 322 320 317 312 309 306 306 306 306 308 310 311 312 312 311 311 310 310 311 313 316 319 328 331 331 332 332 331 332 331 330 328 327 325 324 323 322 323
330 330 331 335 335 336 336 338 338 338 337 336 337 337 338 338 338 338 336 335 336 335 333 329 325 325 326 326 324 321 320 319 318 317 317 316 316 316 317 317 317 316 316 314 314 313 310 308 307 306 304 305 305 305 306 306 306 308 309 310 310 310 309 309 309 310 311 314 317 327 330 332 333 331 330 329 328 326 325 325 325 325 325 321 320
328 330 331 332 332 336 336 336 338 338 337 337 338 337 338 337 338 338 337 337 337 336 335 332 328 327 329 327 322 320 318 318 317 316 315 314 313 312 312 312 312 313 313 311 308 308 309 307 305 305 304 304 304 305 305 305 305 306 307 308 309 308 308 308 308 309 310 312 315 324 329 330 330 330 331 329 327 326 325 324 324 323 322 322 322
328 330 330 332 332 333 335 336 336 337 337 338 339 338 338 338 338 338 337 336 337 336 335 334 331 329 330 325 322 319 317 317 316 315 314 312 311 310 309 309 310 309 308 307 307 308 308 306 305 304 303 304 303 303 303 304 304 305 306 306 306 307 307 307 308 308 309 311 313 321 326 329 329 330 329 329 329 326 326 325 324 323 321 320 322
324 327 329 331 330 332 334 335 335 337 336 337 338 338 338 337 337 335 337 335 336 335 335 335 333 332 331 327 322 320 317 316 315 314 313 311 309 308 308 308 307 307 306 306 307 309 306 305 304 303 303 303 303 302 302 303 303 304 304 305 306 306 307 308 309 309 308 309 311 314 323 327 328 328 330 331 330 330 328 326 324 322 322 321 319
323 325 328 330 330 332 331 333 334 336 336 337 336 337 337 337 337 337 336 332 336 335 335 334 333 333 332 329 325 321 318 317 316 314 312 310 310 309 308 307 306 305 305 307 310 307 305 304 303 302 301 300 300 300 300 300 301 302 302 302 303 306 308 308 309 308 308 307 308 310 316 324 328 327 328 328 327 327 324 322 322 324 322 320 319
325 326 327 329 330 331 331 331 332 336 335 335 335 335 335 335 336 336 337 333 336 335 333 334 333 333 332 330 328 324 320 319 317 314 311 310 311 310 309 308 306 305 307 310 309 306 304 303 302 301 299 299 299 299 299 298 299 300 300 300 300 303 306 307 307 307 306 306 305 306 310 316 322 326 325 325 325 324 324 324 323 322 320 319 318
325 325 327 328 329 330 331 330 331 331 333 334 332 334 333 333 334 335 336 336 337 335 333 334 333 332 332 331 331 327 323 322 320 315 312 312 312 310 309 310 308 309 311 310 309 307 305 303 302 299 298 298 297 297 297 297 296 298 298 298 298 301 302 304 305 305 305 304 304 304 305 310 315 320 323 323 322 321 323 323 323 322 321 319 319
324 325 327 328 328 329 330 330 329 330 331 332 330 332 332 332 331 333 334 335 336 336 335 334 331 333 332 332 331 330 326 326 324 319 315 314 314 311 311 311 310 311 311 309 308 307 305 304 301 299 297 297 296 295 296 295 294 295 296 296 296 297 298 300 301 302 302 302 301 301 301 303 307 312 317 319 318 319 319 320 320 320 320 319 318
325 326 326 325 328 329 330 330 329 328 330 330 329 331 331 331 330 330 331 333 334 334 334 334 333 333 332 332 331 331 329 327 327 323 319 320 317 313 312 312 312 312 310 309 308 306 304 302 300 298 296 296 295 294 295 293 293 293 294 294 294 294 295 296 296 296 297 297 297 297 296 297 299 304 309 314 317 317 317 317 318 317 317 317 317
323 324 325 325 327 330 330 330 329 328 327 330 328 329 330 330 329 330 328 331 332 332 333 334 333 333 333 332 332 331 331 329 328 327 325 325 320 315 314 314 314 312 310 309 307 305 303 301 300 298 298 295 294 293 293 292 291 291 292 292 292 292 293 294 294 294 294 294 293 293 292 293 294 297 300 307 312 316 316 316 316 315 316 315 315
321 323 324 326 325 327 328 329 326 328 325 326 326 327 327 329 328 328 328 328 329 331 332 333 333 333 333 333 333 332 331 331 329 329 328 327 321 317 316 316 314 312 310 308 307 305 303 301 299 297 296 294 293 293 292 291 291 291 291 292 291 291 291 291 293 293 293 292 291 290 289 290 291 293 295 297 304 310 315 315 315 314 314 314 314
323 324 324 325 326 325 325 327 325 327 327 325 325 326 327 328 328 325 328 327 326 327 329 332 332 333 333 333 333 332 331 332 330 329 328 327 324 318 318 317 314 311 309 308 307 304 303 301 300 298 295 294 293 292 291 290 290 290 290 290 291 292 291 290 291 291 291 290 290 290 289 289 289 291 293 292 295 302 310 312 313 313 313 313 313
324 323 324 324 325 325 323 325 324 325 326 325 323 324 325 325 326 327 328 326 326 326 326 328 331 331 332 332 332 332 332 332 331 330 329 327 326 322 319 317 314 312 309 308 307 306 303 301 299 298 297 294 293 291 290 290 290 290 290 290 290 291 290 290 290 290 291 290 289 289 290 290 291 293 287 288 290 293 302 307 310 312 313 312 312
323 323 324 325 325 324 324 324 325 325 326 326 324 323 323 322 322 324 323 326 326 326 326 326 327 330 331 332 332 332 331 332 331 331 329 328 327 325 320 317 314 312 310 309 307 306 304 301 299 298 297 295 293 291 290 290 291 290 289 289 289 289 289 290 291 292 289 289 289 288 288 288 288 287 288 287 287 288 291 297 302 305 308 311 312
323 323 323 324 324 324 323 322 323 324 325 325 323 322 321 319 318 319 320 323 324 325 326 326 326 327 328 330 330 331 330 332 330 330 329 328 327 326 321 318 314 312 310 308 307 305 303 302 299 298 297 295 294 292 291 291 291 290 289 288 288 288 289 289 289 289 288 289 290 290 290 288 288 287 287 287 286 286 288 289 290 292 297 306 310
322 322 321 322 323 323 322 322 322 325 324 323 322 320 318 318 317 313 314 316 319 321 323 325 325 325 325 327 328 330 330 330 330 329 330 328 327 325 322 319 315 312 310 308 306 304 302 301 299 297 296 295 294 293 293 291 290 289 288 287 287 287 287 288 287 288 288 288 288 288 288 287 288 286 287 286 287 285 286 287 289 289 290 297 303
319 320 320 321 322 323 321 321 322 323 323 321 320 321 320 317 315 317 318 316 315 316 319 320 322 324 324 326 326 328 330 329 329 329 330 326 328 325 323 319 316 313 311 308 307 305 303 301 300 298 296 294 293 293 292 291 289 288 287 286 286 287 289 286 286 286 286 286 286 287 287 287 285 286 286 286 286 285 285 286 286 287 287 287 291
314 318 319 320 321 321 321 322 321 321 322 322 321 321 321 321 320 319 319 315 313 314 316 317 320 320 321 322 324 327 329 330 326 328 328 328 327 325 322 319 317 314 312 310 307 305 303 301 299 297 296 294 293 293 292 291 289 287 285 285 286 285 286 285 286 285 285 285 286 287 287 286 286 285 285 285 285 285 285 285 285 287 286 287 288
313 315 318 318 318 319 320 320 320 320 321 321 320 320 320 318 318 312 315 309 309 312 312 315 315 318 319 320 321 324 326 329 329 328 329 328 327 325 323 321 317 314 312 310 307 305 303 301 299 297 295 295 294 294 292 293 289 288 288 285 282 282 285 284 284 285 285 285 285 286 287 286 286 285 285 284 284 284 286 285 285 286 286 287 288
308 308 309 313 316 317 318 318 318 319 319 318 316 316 313 310 309 308 309 312 309 307 310 309 313 314 317 318 320 322 324 325 327 328 328 328 327 326 324 321 318 315 314 310 307 305 303 301 299 298 296 293 292 292 293 293 291 288 285 286 283 283 280 281 282 283 285 285 287 286 286 286 286 285 284 285 284 284 284 285 285 286 286 287 287
306 308 308 310 314 314 315 315 315 316 315 313 312 310 310 308 307 307 306 306 307 308 308 309 312 314 317 318 320 321 323 323 325 327 324 326 325 325 323 321 319 316 314 311 308 306 303 301 300 298 297 295 292 292 292 293 292 293 291 285 283 284 283 281 282 282 284 284 284 286 287 286 286 285 284 283 283 284 284 285 285 285 285 286 286
304 306 307 309 310 310 311 311 312 312 313 310 310 311 311 310 308 308 307 306 308 307 310 312 311 312 316 315 314 320 321 322 324 326 326 324 323 323 323 321 319 317 315 313 310 306 303 301 300 299 297 297 295 293 291 293 294 292 293 295 289 288 285 284 283 279 284 284 284 285 286 286 285 285 284 284 284 284 285 285 284 285 285 285 286
303 303 303 305 306 308 309 310 311 311 311 310 310 310 310 310 310 311 310 309 309 308 306 306 309 307 310 312 314 315 319 319 319 323 322 322 324 322 321 321 320 317 314 313 310 307 305 302 300 300 299 299 297 294 292 292 294 293 293 294 295 292 289 284 281 279 279 281 283 283 284 285 285 284 284 284 283 284 284 284 284 285 285 285 285
302 301 303 304 305 307 308 309 310 309 310 310 310 311 311 310 309 309 309 308 308 308 306 307 306 308 309 310 311 312 314 316 317 318 321 321 320 320 321 319 319 318 314 313 311 309 306 304 301 302 301 300 298 297 294 294 292 292 293 292 292 290 287 287 285 285 281 279 280 282 282 284 284 284 284 284 283 284 284 284 284 284 284 285 284
300 302 303 304 304 305 307 308 309 309 309 310 310 310 311 310 310 309 307 307 307 306 305 306 307 306 307 306 309 311 313 315 317 316 317 319 318 321 319 319 318 317 313 314 313 310 306 304 302 301 301 300 299 299 297 294 294 294 292 292 292 289 288 289 286 284 282 281 282 281 282 283 282 282 284 284 284 284 284 284 284 284 285 284 284
301 302 302 303 304 304 306 307 308 309 309 309 310 310 310 309 309 308 308 306 304 304 304 305 306 305 307 306 307 310 312 313 314 316 314 316 317 318 318 318 317 317 312 315 313 310 307 305 302 301 301 300 300 299 298 297 295 297 295 293 293 289 288 288 285 285 284 286 283 281 282 282 281 282 283 283 283 283 284 284 285 284 284 284 284
299 301 302 303 303 304 305 306 307 308 308 309 309 309 309 309 309 308 307 306 304 305 304 304 304 304 306 307 307 309 310 311 312 311 312 313 314 314 316 317 317 313 311 314 313 311 309 306 304 302 301 301 300 299 299 298 296 297 297 296 295 292 291 289 287 287 286 281 282 282 281 282 281 280 281 283 283 283 283 284 284 283 283 284 284
Wind_Speed
3 6 3 4 5 7 9 10 11 12 12 12 12 11 11 11 15 15 16 16 16 16 16 15 15 15 14 14 14 15 14 14 14 13 16 15 15 15 15 18 18 20 18 19 20 21 21 20 20 21 21 21 20 20 20 21 21 22 21 22 22 23 23 22 22 22 21 21 22 21 21 22 22 24 23 24 22 21 18 20 17 14 13 19 25
8 5 3 3 6 8 10 11 11 12 12 12 12 11 10 10 14 14 15 15 16 16 16 15 15 15 15 14 14 14 15 14 13 14 15 14 14 15 16 18 17 19 20 20 21 20 20 19 20 20 19 19 18 19 19 20 21 21 21 20 20 23 23 22 21 19 19 19 21 21 21 23 23 23 23 24 23 22 19 20 20 12 10 22 23
7 6 4 4 7 8 10 11 11 11 12 12 12 11 9 8 13 14 14 15 15 16 16 15 14 15 15 15 14 13 14 15 14 14 14 13 14 16 15 15 17 20 21 20 20 20 19 19 19 19 18 18 18 18 19 19 18 18 19 20 21 21 22 20 18 17 15 15 17 19 20 24 23 23 23 23 24 24 19 20 21 18 14 24 22
9 6 5 6 8 7 11 10 11 11 12 11 10 9 9 12 13 14 15 15 16 15 14 14 15 15 15 15 15 14 14 15 14 14 14 13 16 17 17 16 17 20 20 20 19 19 19 19 19 18 18 17 18 18 18 17 16 15 16 17 20 21 21 20 18 17 15 13 14 13 8 9 15 22 22 22 24 24 20 22 23 25 25 23 25
9 7 6 5 5 7 10 10 11 12 12 11 11 11 12 13 13 14 15 15 15 15 15 14 15 15 14 14 15 14 14 14 14 13 14 13 16 17 17 17 17 20 20 19 19 19 19 19 19 18 18 18 17 17 16 15 15 15 15 16 18 22 21 20 18 17 16 15 15 8 6 9 11 20 23 23 23 21 20 22 23 24 23 24 25
9 7 6 5 5 6 10 12 12 13 12 12 12 12 12 12 13 14 15 15 15 14 14 14 14 14 14 14 14 15 14 14 14 15 13 16 18 18 17 16 18 19 18 18 18 19 19 19 18 17 18 17 16 16 15 16 15 16 18 19 18 18 19 19 17 15 13 13 11 7 7 7 7 12 23 23 24 21 21 22 23 22 24 25 24
11 7 7 6 5 6 10 11 12 12 12 12 12 12 13 12 13 14 14 14 14 14 13 13 14 14 14 14 14 14 14 14 15 14 14 17 17 16 16 18 19 18 18 18 18 19 19 19 18 17 17 17 16 16 15 15 15 14 15 21 20 19 18 17 16 14 12 8 7 7 8 8 8 7 21 22 22 23 23 23 22 22 22 22 22
8 7 7 6 5 7 10 11 11 11 13 13 12 12 12 13 13 13 14 13 13 13 13 13 13 14 14 15 15 14 14 14 15 13 13 16 16 16 15 16 17 16 16 18 18 19 18 17 16 17 17 16 16 16 15 15 14 13 13 20 20 18 16 15 14 12 10 7 5 5 6 7 8 7 20 20 21 23 23 24 22 22 23 23 18
8 8 8 7 6 10 9 11 13 12 13 12 12 11 13 13 12 13 13 13 13 13 14 13 13 14 14 14 15 15 14 14 14 14 14 15 14 15 16 15 16 17 17 18 19 20 18 18 16 17 16 17 16 15 15 15 15 15 15 18 17 15 15 13 12 12 7 6 5 5 6 7 6 8 18 22 22 22 21 19 20 24 24 21 21
7 7 7 6 6 10 10 10 11 12 13 12 11 12 12 13 12 13 13 13 13 14 14 13 13 13 14 14 14 15 14 14 13 13 14 15 14 14 14 16 17 16 17 19 20 18 17 17 16 18 17 16 15 15 16 16 17 18 18 18 17 16 15 14 12 8 6 4 4 4 5 6 6 9 18 23 24 23 19 19 17 18 18 23 25
9 7 7 6 8 11 10 10 10 11 13 12 11 12 12 12 12 12 12 13 13 14 14 14 13 13 14 14 14 14 14 13 12 12 14 14 15 14 15 15 15 16 17 19 19 18 18 17 17 18 16 16 15 16 16 16 16 18 19 21 19 18 16 15 10 7 7 7 7 6 7 11 9 9 20 21 24 23 19 21 22 23 25 25 25
9 7 6 6 9 11 10 9 9 11 11 11 11 11 11 12 12 12 12 12 13 14 15 14 13 13 13 14 13 13 13 12 11 13 14 14 14 14 15 15 16 16 18 17 18 18 17 17 17 18 16 16 16 16 17 16 16 16 21 20 18 17 16 14 8 7 7 8 7 6 7 9 10 14 23 23 22 23 23 23 24 26 25 25 25
9 8 7 6 6 10 10 9 9 11 11 11 11 11 10 11 12 11 12 13 13 14 15 13 13 13 13 13 14 13 13 12 11 13 13 13 13 15 15 15 15 16 16 17 17 17 17 17 17 17 15 16 16 16 16 16 15 15 18 20 19 17 15 14 8 8 7 7 7 7 8 8 10 19 21 23 24 24 23 24 25 24 24 23 23
9 8 7 6 6 9 10 10 10 10 10 10 11 10 10 10 12 12 12 13 13 14 14 14 13 13 13 13 13 13 12 12 12 12 12 12 14 14 15 15 16 16 15 15 16 16 16 16 17 15 15 15 15 15 16 17 17 16 16 16 14 12 12 11 9 8 8 8 7 7 7 7 10 21 22 23 24 24 24 25 25 25 23 23 22
10 10 8 7 7 6 10 10 10 9 9 9 9 10 10 9 11 12 12 12 13 14 13 13 13 14 13 13 13 13 12 12 11 14 15 13 13 13 13 14 15 15 15 16 16 16 16 16 15 14 14 14 14 15 15 16 17 17 17 16 15 14 11 7 7 7 8 7 6 7 5 7 18 21 22 23 23 24 24 24 23 24 24 24 24
12 10 8 7 7 7 7 8 10 10 9 9 9 9 8 8 9 12 12 12 13 14 14 13 13 14 13 13 13 12 12 12 12 12 12 11 12 13 13 14 14 17 16 16 15 15 15 15 14 14 13 13 13 14 15 15 14 14 16 14 14 14 12 8 6 6 6 6 6 6 6 9 20 22 24 24 25 24 23 24 25 24 24 24 24
10 10 10 8 7 6 6 6 7 11 10 10 9 9 9 8 9 11 11 10 12 13 14 13 13 14 13 13 12 11 11 11 12 12 12 12 12 12 13 14 14 14 15 15 14 15 15 15 14 14 13 12 14 15 16 15 14 12 11 14 14 12 11 8 6 5 5 5 6 6 7 7 17 22 24 24 25 25 24 25 24 23 23 23 24
10 10 10 9 7 7 6 6 7 7 6 8 10 10 9 9 10 10 10 10 10 13 13 12 12 12 12 11 10 9 10 11 11 12 12 11 11 11 13 12 13 14 15 15 15 14 14 14 14 13 12 13 15 16 15 15 15 14 13 12 12 12 10 8 5 4 5 4 5 5 6 14 21 22 24 24 24 24 24 24 24 23 23 23 23
9 9 9 9 8 7 7 6 6 6 7 6 5 8 10 11 11 10 10 10 11 12 13 12 11 10 12 11 10 10 9 10 10 10 8 8 9 9 11 12 13 14 15 15 15 15 14 14 14 13 12 14 15 15 15 15 14 14 13 12 13 13 12 7 4 4 4 5 5 6 7 15 18 23 23 23 23 23 24 23 22 22 21 22 22
8 8 8 8 8 8 7 6 6 6 6 5 6 6 8 12 12 11 11 11 12 13 13 12 12 12 12 13 12 10 10 9 11 9 11 10 10 7 9 10 13 14 14 14 14 14 14 13 13 13 13 14 14 15 15 15 14 14 13 13 13 12 7 5 5 5 5 3 3 5 13 17 20 20 21 22 22 23 23 23 21 20 22 22 21
5 8 8 8 7 8 8 7 6 7 7 6 5 6 7 11 10 12 12 13 13 14 13 13 12 12 11 12 11 8 6 6 7 6 9 6 8 9 9 11 12 12 13 13 14 14 13 13 14 13 13 12 10 11 13 13 13 14 13 12 13 8 6 6 6 5 4 4 3 5 10 15 21 21 21 22 23 21 20 20 21 22 22 21 21
7 7 8 9 8 7 9 8 7 8 7 7 5 5 6 8 7 8 9 10 11 12 11 9 9 8 11 9 7 7 6 6 6 7 6 7 8 10 10 10 11 9 11 13 14 14 13 14 14 13 12 10 10 7 7 10 13 11 12 13 9 6 6 6 6 6 5 5 2 8 13 14 16 20 22 22 21 20 20 20 20 20 21 20 20
6 7 7 9 8 7 8 9 9 8 8 7 6 6 7 6 7 8 8 10 10 10 8 8 7 8 7 7 7 6 7 6 6 7 7 10 9 11 11 11 10 10 10 12 14 13 13 13 13 11 9 10 7 6 6 6 7 11 10 8 6 6 6 6 6 6 6 5 1 12 14 17 19 21 22 21 21 20 19 18 19 20 20 20 20
7 7 7 7 8 8 9 9 9 8 9 6 6 6 6 6 6 6 6 7 7 7 8 8 8 8 8 7 6 7 6 6 9 13 10 7 8 11 12 13 12 11 12 9 11 11 13 11 10 9 7 5 6 6 6 6 6 6 6 6 6 6 6 5 5 5 5 5 5 10 14 18 21 21 21 21 20 21 20 19 19 19 18 19 20
7 6 6 7 8 9 8 8 9 8 9 7 7 7 7 6 6 6 7 6 7 7 7 7 8 9 8 7 7 7 7 7 7 6 6 7 6 6 6 6 7 7 9 7 7 6 6 6 6 6 5 5 6 6 5 6 6 6 6 6 6 6 6 6 5 6 6 6 7 9 13 18 20 20 18 19 19 19 18 19 19 20 20 19 17
5 8 8 7 7 8 9 8 9 9 9 8 8 8 8 7 7 7 7 6 6 7 7 7 7 8 6 7 8 8 7 7 6 6 6 6 7 6 6 6 6 6 6 7 7 7 6 7 7 7 6 6 6 5 5 5 6 6 6 6 6 6 6 6 6 6 6 6 8 9 12 14 18 20 19 17 18 18 18 18 19 18 19 19 19
9 9 8 7 6 7 8 7 8 9 10 9 8 8 8 7 8 8 8 6 6 7 7 7 7 7 6 8 9 7 7 7 7 7 7 6 6 6 6 6 6 6 6 6 6 5 6 7 7 7 7 7 6 6 6 5 5 6 6 6 6 6 6 6 6 6 6 7 8 11 10 11 13 16 18 19 19 20 19 19 18 17 16 17 19
7 7 8 9 8 8 8 7 7 9 9 9 9 8 8 8 8 8 8 8 8 7 7 7 7 7 6 7 7 7 8 7 7 6 7 5 6 6 6 6 6 6 5 3 4 4 4 5 5 5 6 6 7 6 6 6 6 5 6 6 6 6 6 5 6 6 6 6 7 12 7 11 12 16 18 20 21 21 20 19 18 17 18 18 17
8 8 9 9 10 9 7 8 7 10 9 9 9 8 8 9 8 9 8 9 8 8 8 7 7 7 6 7 8 7 6 7 7 7 6 6 5 5 5 6 6 6 5 3 3 4 4 5 5 5 5 6 5 6 6 6 6 6 6 6 5 6 6 6 6 6 5 5 6 11 15 7 13 15 17 17 19 17 15 13 16 18 18 17 16
11 9 9 10 9 9 9 9 8 10 9 9 8 8 9 9 9 9 9 9 8 8 8 7 7 7 7 7 9 8 8 8 8 7 8 7 6 6 5 6 6 6 5 3 4 5 6 5 5 5 6 6 6 5 6 6 6 6 6 6 6 6 5 5 6 5 5 6 6 8 15 14 10 14 16 16 16 15 14 16 15 16 16 14 14
9 11 10 10 9 9 10 9 7 8 8 9 8 9 9 8 9 8 8 9 9 9 8 8 7 7 8 8 9 9 9 8 8 9 7 8 7 7 7 6 6 6 5 5 5 6 6 6 5 5 5 6 6 5 6 7 6 6 5 6 5 6 6 5 5 5 6 6 6 6 10 15 16 16 9 14 14 14 16 16 16 16 16 15 15
11 13 11 9 10 12 12 10 8 9 10 9 9 9 9 9 8 8 8 9 9 8 9 8 8 8 8 9 9 9 9 9 10 9 9 8 8 8 8 7 7 6 5 6 6 6 6 5 5 4 4 6 6 5 5 7 6 6 6 6 5 6 5 5 5 5 6 6 6 6 7 8 14 16 16 9 10 10 10 12 12 13 14 13 13
10 11 10 10 12 12 12 12 9 8 11 11 10 9 8 8 8 8 8 9 8 8 9 9 9 8 8 9 9 10 9 9 9 11 9 9 8 9 8 9 7 6 6 7 7 7 7 6 6 5 5 5 7 6 5 6 7 6 6 5 6 6 5 5 5 5 6 6 6 6 6 7 7 12 15 16 9 9 9 9 12 12 11 12 12
9 8 9 12 11 9 10 10 10 10 10 9 9 8 9 8 8 7 7 8 8 8 9 8 8 8 8 9 9 10 9 9 10 10 9 8 9 9 9 8 7 7 7 8 8 7 7 7 7 6 5 6 7 6 7 7 6 6 6 5 6 5 6 6 5 5 5 5 5 6 6 6 6 6 8 13 15 9 9 9 10 9 10 10 10
7 8 13 14 11 11 10 9 11 12 9 9 10 9 8 8 8 7 8 7 7 8 7 8 8 8 8 9 10 9 10 9 10 10 10 9 9 9 9 9 8 8 8 7 8 6 7 9 7 7 5 5 5 5 6 7 7 7 6 6 6 6 6 6 6 6 6 5 6 5 6 6 6 6 6 6 9 12 10 10 9 9 9 10 9
12 12 11 11 12 10 11 11 11 13 12 10 9 9 9 9 8 8 7 7 6 7 7 8 8 7 8 8 10 9 10 10 10 10 9 9 8 9 9 8 9 8 8 7 8 8 7 7 7 9 8 6 6 4 4 6 6 7 6 6 6 6 6 6 6 6 5 6 6 5 5 6 6 6 5 5 5 7 13 13 12 9 8 8 9
11 10 12 11 12 11 11 12 13 14 13 10 8 6 8 9 9 9 8 8 7 7 6 6 7 8 7 8 9 9 9 10 10 10 9 9 8 8 8 9 10 10 9 8 8 7 8 8 8 7 7 8 8 7 4 5 6 5 6 6 5 6 6 6 6 5 5 6 4 5 5 4 4 4 4 4 5 5 9 14 14 14 11 9 7
11 12 12 14 14 12 11 12 11 12 11 11 9 8 7 8 7 8 8 8 8 7 7 7 7 8 8 8 9 9 9 9 10 9 9 9 9 8 8 9 9 9 10 9 9 8 7 8 9 6 6 8 8 8 6 5 5 5 6 5 6 6 5 6 5 4 6 5 5 5 4 4 4 3 3 4 4 4 5 8 12 13 13 9 10
11 13 11 11 10 10 9 10 11 11 10 9 8 6 5 5 6 7 7 8 7 7 8 8 7 7 8 9 10 9 9 10 9 9 9 8 8 8 9 10 9 9 9 9 9 9 8 7 9 8 4 3 7 8 8 7 5 5 5 4 4 5 5 5 5 6 6 4 5 4 4 5 4 3 4 4 4 4 5 5 5 5 7 13 10
11 11 11 10 10 10 9 9 10 11 9 7 7 7 6 7 7 4 6 7 8 8 7 8 7 7 7 8 9 9 9 9 9 9 10 9 9 8 9 9 9 10 10 10 9 9 11 9 9 10 9 5 4 6 8 9 7 6 5 5 4 4 4 5 5 4 4 5 5 4 5 3 5 4 4 3 4 3 4 4 4 5 4 7 10
9 10 11 12 12 13 12 13 11 10 10 9 9 10 10 7 5 9 10 8 8 7 8 7 8 8 7 8 8 8 9 10 9 9 10 10 10 9 9 10 10 10 11 12 12 13 12 12 10 9 12 10 6 6 7 10 11 5 4 4 5 3 4 4 4 4 4 4 4 6 4 5 4 4 3 3 4 3 3 3 3 4 4 4 5
10 11 13 15 14 11 13 13 9 10 12 12 11 11 11 12 12 12 9 7 7 7 8 7 8 7 8 7 6 7 9 9 9 8 9 10 10 10 10 11 11 10 10 11 13 13 13 11 9 8 6 10 8 9 9 11 4 8 8 3 3 3 3 3 3 3 3 4 4 5 4 5 5 4 3 5 3 3 3 3 3 4 3 4 3
13 13 13 11 10 11 11 10 10 11 11 11 10 12 10 7 8 5 7 4 3 4 4 4 5 7 7 7 7 7 8 9 10 10 9 9 10 10 10 10 11 10 10 8 8 9 11 14 14 13 10 6 6 8 10 7 5 5 5 7 3 4 1 1 1 2 3 3 3 4 4 5 5 4 4 4 3 3 3 3 3 4 3 3 3
7 6 5 8 8 10 9 10 10 10 9 9 9 6 5 3 3 3 4 5 5 3 4 4 5 6 7 7 7 7 8 8 8 9 10 10 10 11 11 11 11 10 11 11 11 10 9 9 10 10 11 11 7 10 11 7 7 13 6 3 4 3 2 8 7 3 4 4 4 4 4 5 5 4 4 5 4 3 3 3 3 3 3 3 3
8 9 9 9 9 10 9 8 7 8 6 5 5 5 5 4 3 3 3 2 1 3 4 6 6 6 6 8 9 7 7 8 9 10 8 10 10 10 11 11 12 12 11 11 12 13 13 12 13 12 13 13 10 8 10 8 8 7 6 8 2 1 7 3 8 2 2 3 4 4 4 5 5 6 5 4 4 4 4 3 3 3 4 3 3
8 9 8 8 7 7 6 6 6 7 7 6 7 7 7 8 7 7 7 6 8 7 12 14 10 10 11 5 5 8 7 7 7 9 13 10 9 10 10 11 12 11 12 11 11 11 14 14 14 13 14 13 15 12 11 10 8 11 8 2 5 7 7 6 9 6 2 3 4 5 6 6 5 6 5 5 5 4 3 4 3 4 3 3 3
9 5 5 6 6 6 7 8 8 7 8 7 9 8 8 8 11 11 9 10 10 9 5 3 7 5 4 7 7 7 9 9 7 7 7 11 13 11 11 11 12 11 11 10 11 13 13 14 12 13 14 12 10 13 15 13 7 9 9 8 4 3 8 10 7 7 3 3 3 4 5 5 5 6 6 6 6 5 4 4 4 4 3 3 4
6 5 5 5 7 8 8 8 7 8 8 8 10 10 11 10 10 10 10 10 11 10 8 6 4 6 6 7 6 7 7 8 7 7 8 10 9 9 11 11 11 12 11 11 12 11 10 10 13 14 12 11 13 13 13 11 14 12 12 9 2 0 6 2 7 11 7 8 6 2 2 6 5 5 7 7 7 7 6 5 5 4 4 4 4
5 7 7 7 7 6 7 7 8 8 8 10 11 10 11 11 11 9 10 9 8 7 5 6 6 6 6 5 6 6 7 8 9 8 7 7 11 13 11 10 11 11 12 11 10 11 13 13 12 11 10 11 11 12 11 13 13 12 10 8 4 4 3 1 5 5 5 6 3 9 7 2 3 4 6 6 7 7 7 7 6 5 4 4 4
6 6 5 5 6 6 7 8 9 8 9 10 11 11 11 10 10 11 12 9 6 5 5 6 7 6 8 7 7 7 7 8 10 10 7 7 8 9 12 13 12 11 11 13 12 12 13 13 15 15 15 15 12 11 13 12 13 12 12 11 8 5 3 2 3 4 3 3 8 10 9 11 11 8 5 6 7 6 6 6 5 5 5 5 4
5 6 6 6 6 7 7 9 9 8 8 10 10 11 10 10 11 11 12 11 9 8 8 7 7 7 9 9 9 8 8 8 7 9 10 8 7 9 10 11 11 10 10 11 12 13 13 14 14 15 15 15 12 12 10 9 10 10 9 9 11 12 13 13 10 8 7 5 4 5 7 9 7 5 7 6 7 7 7 6 6 6 6 6 5
Wind_Direction
165 128 138 135 117 127 123 120 117 113 109 105 104 99 90 77 83 83 82 79 79 80 79 76 77 80 80 80 82 89 87 86 85 82 78 76 78 81 83 80 81 78 77 77 73 72 74 74 74 73 73 74 74 71 72 73 76 80 82 81 80 79 77 76 76 75 74 77 79 79 78 76 75 73 72 72 70 66 63 63 61 58 61 63 63
152 133 139 135 132 137 126 121 117 111 107 106 103 99 91 81 87 85 84 82 80 78 79 78 78 78 79 80 80 86 92 90 86 85 81 85 86 80 74 77 79 79 76 74 74 76 78 78 76 76 75 74 74 75 74 72 73 77 81 83 83 82 81 79 76 72 70 74 78 77 75 76 76 75 75 76 74 71 68 69 66 64 65 66 62
124 125 128 132 134 128 120 122 117 113 111 107 105 101 96 93 90 89 86 84 81 80 79 82 80 78 78 82 86 86 90 95 93 89 91 88 84 85 83 82 79 77 75 74 75 77 79 77 76 76 75 77 78 77 74 71 69 72 79 81 82 82 81 79 73 68 64 64 66 71 74 77 78 78 78 77 76 74 73 74 73 71 70 68 64
125 125 127 128 133 131 128 122 119 115 112 110 109 105 105 100 97 94 89 84 81 81 81 79 81 82 84 83 85 87 91 93 92 90 87 90 83 83 84 80 81 82 81 79 79 82 81 80 79 78 78 79 78 74 71 69 68 72 77 84 85 84 83 80 75 69 62 61 69 73 70 74 75 77 78 77 76 74 72 73 76 76 75 74 73
123 131 130 130 132 125 120 121 122 116 115 115 114 114 110 102 97 95 91 87 84 84 85 84 84 85 86 86 88 89 90 93 96 97 101 99 92 86 83 82 84 83 81 82 82 82 80 79 79 80 80 78 75 72 68 63 60 61 69 77 82 87 85 82 77 71 65 64 67 53 54 73 82 80 80 78 77 76 76 77 75 73 71 71 72
133 134 131 132 131 132 127 129 124 121 121 120 120 117 109 105 101 96 91 88 88 86 84 86 87 87 89 91 91 94 95 96 97 96 95 89 83 84 87 90 86 84 84 85 83 81 81 80 79 81 81 77 72 65 59 55 54 56 70 83 85 86 86 84 80 72 64 58 54 55 53 61 74 82 82 83 83 81 77 73 74 75 74 72 70
136 137 133 133 132 139 140 135 130 129 129 127 120 114 113 109 103 97 93 93 92 92 90 90 91 90 90 89 90 94 99 101 98 97 99 90 88 88 85 84 85 87 89 88 87 83 81 81 80 82 81 75 67 60 57 55 55 55 69 84 84 83 82 86 86 81 73 66 65 62 64 65 65 71 83 82 79 79 79 79 77 76 72 71 73
135 136 138 135 134 142 141 139 134 133 129 124 120 119 117 111 105 102 98 97 94 94 94 94 93 92 92 93 93 92 94 96 99 100 98 95 96 97 91 83 84 88 89 88 85 84 81 82 82 85 82 73 65 60 55 51 50 55 71 88 87 85 87 88 87 84 75 72 69 66 68 74 82 77 79 78 82 80 76 73 71 73 73 68 62
138 135 135 135 138 142 142 142 138 135 129 126 124 123 120 116 110 106 103 100 96 95 96 93 93 94 95 96 96 94 93 94 99 101 92 89 90 86 87 87 83 83 90 93 89 84 83 83 84 89 82 71 62 56 53 51 53 61 77 85 85 83 79 74 72 76 78 80 76 74 72 75 75 84 85 86 83 77 73 69 66 67 67 69 71
132 126 132 134 137 137 137 140 138 134 131 127 123 122 122 119 114 111 109 105 101 98 96 93 94 96 95 96 97 98 97 96 95 99 99 94 92 93 92 94 95 96 87 81 80 83 84 83 85 93 83 63 56 53 51 54 62 76 85 85 76 71 66 60 58 56 56 50 50 64 75 73 79 85 94 93 89 84 81 80 81 76 72 69 68
127 130 131 131 137 132 135 135 136 136 133 129 126 123 123 122 119 118 116 111 105 103 98 97 97 98 99 99 100 100 99 101 103 103 103 104 103 102 98 94 89 82 84 83 84 86 85 85 92 95 72 62 54 52 52 54 60 73 75 72 70 69 66 62 56 57 54 57 58 48 59 70 76 84 95 92 89 85 79 80 79 76 70 66 66
127 129 129 131 135 133 134 137 135 133 133 132 128 125 123 126 126 123 118 113 110 106 104 103 101 100 101 100 98 99 100 102 102 98 94 94 94 96 96 89 89 88 87 86 87 86 86 88 95 94 70 62 56 53 52 55 58 67 77 77 73 71 70 68 64 61 56 54 53 50 53 71 84 91 93 92 88 86 83 81 78 73 71 68 66
124 127 128 132 133 135 135 138 135 137 137 134 130 128 129 129 130 126 120 116 114 108 106 106 106 105 104 103 102 100 101 102 103 103 100 106 107 101 98 97 94 91 89 92 93 93 91 94 98 89 69 63 57 54 55 59 63 70 80 84 80 76 73 71 67 64 61 57 53 55 74 86 93 98 93 93 91 87 83 79 74 72 70 70 70
127 129 134 136 134 138 135 138 141 142 140 134 134 132 132 133 132 129 125 123 117 112 112 112 110 109 107 106 106 104 105 106 105 107 105 101 103 101 100 98 96 94 95 98 96 94 95 97 99 82 72 67 62 57 57 61 66 73 75 73 70 71 74 73 72 70 68 62 59 62 78 91 100 93 94 91 88 85 80 78 78 76 73 73 73
133 137 139 139 137 140 141 140 142 141 137 135 133 133 135 135 132 130 128 127 120 117 116 115 114 113 111 111 110 109 107 106 107 110 108 107 111 110 104 101 101 103 104 99 98 97 97 98 95 78 73 69 64 62 60 61 70 75 76 79 81 81 75 76 73 73 76 76 71 75 80 93 94 95 92 90 87 85 83 80 79 78 78 79 76
137 139 137 141 142 142 143 145 142 139 138 135 132 133 134 128 129 133 136 134 125 122 119 117 116 115 113 110 111 112 111 107 103 99 105 113 112 111 107 108 112 108 101 100 99 100 101 102 88 80 74 69 65 61 56 55 54 66 78 80 83 84 81 77 80 83 84 86 81 75 76 92 97 95 90 87 86 85 84 84 82 80 79 78 80
135 138 140 145 146 144 143 147 149 141 138 138 137 139 135 129 129 134 135 133 128 123 120 118 117 115 114 111 107 107 108 108 106 108 107 109 113 111 115 114 110 109 111 109 107 102 101 98 85 81 77 69 60 55 54 55 58 63 65 78 79 76 73 72 70 75 80 85 94 95 91 88 95 96 92 90 88 86 85 85 84 82 80 78 75
140 144 147 151 150 149 146 144 144 145 141 141 142 144 140 131 127 131 136 136 130 123 120 118 113 110 107 105 103 104 109 109 108 112 114 110 110 111 111 113 116 113 110 107 108 105 101 99 89 86 80 70 61 56 53 54 57 58 60 58 56 56 57 60 66 65 75 87 95 96 103 103 97 93 92 91 91 90 88 85 84 84 82 81 79
146 147 151 154 156 151 149 146 153 148 148 147 147 148 143 133 131 132 136 134 124 120 114 110 109 102 103 97 90 83 81 85 91 95 91 92 100 108 112 113 115 114 112 110 109 109 109 103 91 88 79 69 63 57 55 54 55 57 56 55 54 52 48 42 32 41 63 84 98 103 96 99 103 99 95 91 89 90 89 87 84 84 85 83 81
150 147 152 159 156 154 152 153 157 155 150 153 151 144 143 138 134 132 135 131 126 121 119 116 114 112 109 105 99 90 82 77 77 79 82 78 78 86 100 111 117 116 115 114 113 112 111 99 93 86 77 71 64 57 53 54 55 57 55 54 53 48 41 33 27 25 25 39 89 120 117 107 101 97 94 93 93 90 89 89 90 88 84 82 81
152 151 154 159 160 156 157 158 164 159 158 154 153 146 150 143 135 133 134 132 130 129 126 124 121 120 116 112 106 103 97 91 83 86 79 81 84 94 109 112 115 113 116 117 116 115 109 100 94 88 79 68 56 52 51 51 53 55 55 52 51 45 34 31 25 18 8 3 58 92 95 106 106 102 100 97 94 93 93 92 90 88 85 84 81
159 161 161 160 159 162 161 163 166 166 164 158 157 150 138 148 138 135 136 133 133 133 134 137 135 133 128 123 123 118 113 108 109 101 100 95 90 93 101 111 111 109 116 116 115 115 109 101 94 86 73 55 49 49 47 51 52 53 54 54 51 44 33 32 27 18 11 353 33 93 91 94 99 103 103 99 98 96 92 91 88 87 87 88 87
160 164 172 162 163 161 161 164 172 168 165 162 159 155 155 152 145 139 136 143 145 145 145 144 143 144 143 137 129 129 129 126 124 124 120 110 108 107 111 113 107 105 113 120 121 115 104 99 92 75 57 50 49 45 47 51 53 53 55 55 54 45 41 34 30 24 17 356 343 117 114 111 110 109 105 103 100 98 99 93 92 89 88 86 86
170 169 170 169 163 167 169 167 171 164 162 160 155 156 163 155 152 146 144 146 150 154 153 154 153 154 152 145 140 137 127 124 125 122 118 116 115 116 119 118 119 121 124 123 120 114 106 85 66 59 52 47 49 46 50 48 55 61 64 61 59 50 46 36 32 25 18 10 355 104 114 114 112 111 109 107 104 103 98 96 97 97 95 91 88
170 157 163 176 171 168 171 173 172 164 161 158 156 164 166 159 158 153 155 159 162 161 162 164 165 164 160 153 147 138 135 134 134 129 128 129 126 128 128 132 134 135 132 131 131 121 102 93 85 75 69 67 62 53 53 54 51 62 66 63 61 55 49 38 33 34 22 8 0 70 106 117 118 113 109 108 104 102 100 99 97 95 93 91 89
164 171 183 181 180 175 171 171 173 172 168 166 167 166 166 168 166 162 163 169 169 166 169 172 175 173 167 150 145 142 142 140 142 138 136 139 138 142 143 143 143 143 150 144 148 142 125 120 114 109 106 94 87 76 64 67 67 64 67 63 61 55 49 39 38 40 24 17 7 56 102 120 119 117 117 115 112 107 104 100 97 94 92 91 92
182 187 176 183 181 178 183 165 175 174 173 170 169 166 176 173 170 167 169 173 173 169 179 181 184 181 160 152 148 151 147 148 146 148 147 150 149 151 151 153 150 153 166 150 153 145 137 132 128 129 126 115 106 97 84 74 74 82 74 69 65 61 51 45 44 43 29 26 18 42 95 118 122 120 120 120 115 114 114 109 101 99 100 96 92
173 182 181 183 186 182 186 177 174 175 174 173 169 172 174 172 172 169 176 175 174 178 181 183 184 187 160 158 150 152 152 151 151 153 155 154 159 158 154 150 153 161 166 157 132 129 129 121 123 119 113 109 109 104 94 84 78 79 83 75 74 66 55 51 53 45 35 32 35 21 87 111 106 118 115 115 112 111 110 109 107 106 98 94 93
185 187 183 181 193 184 179 190 177 179 176 173 173 173 174 175 172 176 180 172 182 180 180 179 183 189 167 161 152 154 157 153 157 161 158 162 162 164 159 158 161 168 164 159 112 119 96 95 97 102 100 101 98 90 87 76 73 68 78 75 71 65 60 55 53 47 42 39 36 33 30 48 124 122 120 111 107 106 105 106 109 101 98 98 99
198 185 182 190 188 186 186 194 183 181 176 171 174 174 177 177 178 179 180 175 184 180 176 182 183 179 181 166 165 162 166 163 162 164 163 169 167 164 163 168 170 177 166 148 132 117 116 103 102 105 107 107 100 102 95 83 71 70 70 78 69 70 64 59 52 50 39 43 33 35 27 25 36 107 107 105 107 113 113 110 105 104 104 102 96
185 190 190 189 184 185 197 195 187 179 174 176 172 176 174 177 179 181 179 183 181 178 181 183 182 183 183 173 171 169 167 169 166 166 171 167 171 167 171 171 178 185 167 139 133 126 120 123 126 125 120 114 109 107 103 95 88 81 82 81 83 83 75 65 62 52 53 39 39 32 31 25 31 27 71 117 119 120 117 116 115 112 108 104 101
189 195 191 180 179 190 196 196 190 179 177 180 172 176 180 177 172 177 183 185 177 181 182 183 187 184 179 181 177 173 174 173 170 171 172 172 173 175 172 175 186 180 158 139 134 128 128 120 111 111 116 112 111 103 104 104 97 101 97 92 88 85 82 77 71 62 56 50 39 40 35 30 26 32 20 53 102 107 116 118 112 110 109 106 100
203 190 180 176 186 188 192 197 191 184 183 181 179 181 182 181 177 177 177 179 181 180 185 188 188 185 182 183 183 178 179 176 174 174 175 176 174 175 177 181 178 166 155 141 134 127 121 119 115 119 113 108 110 111 103 102 109 109 101 103 95 87 85 82 73 63 55 52 43 40 40 36 33 30 24 20 57 103 100 106 116 120 115 111 110
191 188 173 185 184 185 189 193 197 190 190 185 180 181 184 186 185 180 175 175 180 183 187 186 187 189 185 187 185 184 181 182 177 177 177 175 175 178 178 180 170 162 151 143 141 142 138 138 140 131 133 131 130 137 125 114 112 108 103 108 95 98 92 80 75 69 68 58 51 47 46 40 38 38 27 25 19 41 106 109 106 105 113 113 110
174 184 189 189 178 183 184 193 194 196 186 190 187 186 184 182 186 186 186 180 180 184 186 186 187 188 186 190 189 187 187 183 184 179 183 176 174 177 179 175 162 155 151 154 145 148 148 148 149 136 136 130 130 141 131 130 128 118 118 111 106 100 82 88 77 75 69 69 61 56 50 52 42 46 33 29 24 23 52 89 96 106 114 118 118
188 189 190 182 186 181 184 187 189 196 195 190 191 185 181 181 183 186 186 187 186 186 184 187 186 187 189 190 193 188 189 187 186 185 184 183 177 175 176 162 157 150 150 152 147 154 158 150 155 149 143 147 136 134 129 126 124 121 120 107 106 96 97 90 89 84 84 77 72 65 64 60 59 50 47 34 27 22 38 48 62 72 83 92 107
190 182 186 185 187 186 182 185 187 193 194 193 187 185 173 176 181 184 187 185 190 194 185 182 184 188 192 193 194 192 190 191 190 187 185 186 183 179 170 165 159 154 156 159 161 159 158 156 158 165 156 150 146 139 127 120 118 116 116 110 105 103 99 105 103 105 89 85 79 77 73 70 68 66 54 50 34 27 28 44 47 40 39 63 80
195 188 188 185 189 185 186 189 189 190 191 192 187 183 181 173 177 185 188 191 194 191 191 182 188 188 188 195 192 195 195 191 192 189 187 188 185 181 170 167 163 158 159 162 166 161 164 161 159 165 158 150 150 146 139 119 110 106 96 103 110 101 106 103 103 99 100 99 91 89 98 93 83 64 52 50 50 43 40 35 38 34 34 48 68
198 194 186 189 183 186 188 193 188 191 194 190 187 181 176 180 175 177 189 195 195 196 190 196 191 182 191 189 190 193 195 194 189 190 188 186 188 184 173 172 166 163 160 165 160 163 163 170 162 151 136 141 153 146 138 128 108 96 90 80 86 97 104 100 101 103 106 118 116 115 98 88 93 72 70 65 68 64 59 50 47 46 36 50 65
195 192 189 184 184 185 189 191 194 193 189 184 178 184 183 189 188 189 192 198 196 194 199 197 190 192 184 186 189 190 190 196 187 189 191 187 188 185 178 175 175 166 165 165 166 168 168 168 172 157 146 115 116 137 136 123 98 85 85 73 75 89 88 103 102 117 123 118 123 117 108 100 86 84 78 81 78 73 71 65 67 61 49 42 50
191 187 189 191 188 187 181 193 195 185 182 183 186 188 194 196 201 201 205 190 186 190 199 199 194 194 188 186 185 189 190 195 194 182 196 189 188 183 179 180 181 176 174 175 172 175 176 175 167 163 154 150 152 156 153 134 125 82 52 66 56 52 84 93 102 107 118 138 135 122 123 99 102 98 93 83 78 78 79 77 82 78 68 65 40
204 190 192 195 193 185 187 194 185 188 192 191 190 192 197 199 195 203 197 182 182 184 199 200 198 193 190 185 182 187 192 197 200 191 193 190 187 183 184 185 182 184 182 181 178 177 174 170 156 151 167 159 162 170 169 136 152 160 147 133 32 40 67 76 92 91 117 144 147 134 136 130 128 130 99 87 82 89 94 103 101 96 92 79 69
195 196 199 189 189 190 196 192 191 191 197 193 186 198 199 197 194 192 182 183 211 194 182 188 189 192 196 191 188 188 193 199 200 198 198 196 190 183 187 182 187 179 173 170 177 179 180 174 170 164 162 170 153 175 182 197 136 121 111 107 185 146 263 57 324 188 156 146 148 148 153 143 153 151 133 108 111 107 103 106 106 113 119 109 99
185 194 196 195 195 198 196 193 194 197 196 195 197 195 173 147 134 126 160 164 189 179 179 163 187 188 204 197 200 192 198 202 198 202 201 203 195 190 184 183 184 181 181 171 171 180 180 183 177 171 161 156 169 184 197 185 144 140 167 196 163 143 147 235 189 227 174 164 157 169 160 163 162 151 131 139 147 136 128 112 116 127 133 142 138
192 191 187 188 194 199 199 191 190 195 194 183 174 148 124 124 107 69 93 100 51 155 183 217 199 197 194 203 207 190 201 208 204 202 210 202 196 192 184 184 180 183 187 183 178 180 180 182 180 171 173 169 171 181 196 202 191 214 137 131 97 241 225 169 139 232 166 172 209 176 177 167 166 168 161 167 156 154 145 131 141 128 132 136 130
199 203 195 193 187 191 187 181 179 183 186 174 166 156 166 164 160 163 175 188 200 188 202 208 198 199 205 194 197 198 199 206 205 214 205 204 201 193 190 183 185 185 189 187 181 177 185 183 185 178 183 185 170 171 191 211 206 219 236 263 180 178 182 180 139 212 154 223 183 195 185 186 173 165 171 161 161 166 160 164 161 153 144 136 136
214 190 187 192 189 183 187 184 183 184 180 174 166 165 171 179 185 192 194 197 203 221 224 217 201 215 185 195 202 199 200 207 215 210 210 204 195 190 191 188 185 186 187 184 186 188 187 189 184 186 188 180 174 181 187 193 197 241 239 246 261 248 143 142 188 90 174 252 232 196 216 202 185 166 174 175 168 162 181 174 174 175 169 150 146
197 176 192 190 189 191 185 187 183 182 183 172 175 177 179 184 188 195 196 200 205 209 194 202 187 182 199 208 200 208 205 205 207 220 219 199 194 191 186 190 192 186 181 191 191 187 184 191 190 194 185 186 183 186 188 181 186 212 214 225 268 140 172 77 152 166 150 163 212 259 277 210 197 196 181 177 172 172 178 186 178 187 185 171 157
180 191 192 196 194 190 188 183 186 183 186 179 178 185 184 185 189 191 203 213 205 204 186 190 185 180 194 204 200 208 215 218 212 215 218 219 200 189 190 194 195 192 181 189 193 185 184 182 185 189 190 193 195 197 183 190 196 207 181 214 187 162 176 47 129 105 143 133 161 186 196 237 253 226 205 181 177 175 179 182 182 182 186 181 172
197 192 197 188 193 188 188 187 194 187 185 184 182 186 187 181 190 198 204 204 197 197 180 197 197 187 203 200 201 202 209 217 222 221 223 219 213 199 187 192 199 195 188 189 187 188 190 189 189 192 193 195 198 196 196 195 200 204 197 187 173 133 134 117 182 161 69 117 159 190 189 180 196 216 188 192 180 186 181 179 180 183 191 193 183
194 187 190 194 192 189 190 194 198 189 186 186 183 188 187 188 197 198 202 201 195 189 193 206 198 201 210 211 207 210 205 217 217 219 223 220 217 209 199 196 195 194 191 193 191 191 192 192 193 196 196 196 197 199 207 206 199 202 194 186 191 177 179 184 184 189 166 146 111 169 176 194 199 176 218 190 183 186 182 181 184 188 191 196 197